Regional Weather Roundup
Issued by NWS

Home | Current Version | Previous Version | Graphics & Text | Print | Product List | Glossary On
Versions: 1 2 3 4 5 6 7 8 9 10 11 12 13 14 15 16 17 18 19 20 21 22 23 24 25 26 27 28 29 30 31 32 33 34 35 36 37 38 39 40 41 42 43 44 45 46 47 48 49 50
295
ASUS44 KMEG 271710
RWRTN
TENNESSEE HOURLY STATE WEATHER ROUNDUP
NATIONAL WEATHER SERVICE MEMPHIS TN
1200 PM CDT WED JUL 27 2016

TNZ002-004-019-021-049-052-054-088>092-271800-
WEST TENNESSEE

CITY           SKY/WX    TMP DP  RH WIND       PRES   REMARKS
MEMPHIS INTL   PTSUNNY   91  74  57 E10       29.97F HX 100
NWS MEMPHIS      N/A     89 N/A N/A MISG        N/A
JACKSON        CLOUDY    86  77  74 SE3       30.00F HX  97
DYERSBURG      MOSUNNY   88  75  66 MISG      29.99S HX  97
UNION CITY     SUNNY     88  75  66 E5        29.99R HX  97
PARIS          MOSUNNY   88  75  66 SW7       30.02R HX  97
LEXINGTON      PTSUNNY   88  73  62 E6        30.00F HX  96
$$

TNZ008-025-027-028-033-062-065-066-271800-
NORTH MIDDLE TENNESSEE

CITY           SKY/WX    TMP DP  RH WIND       PRES   REMARKS
NASHVILLE      MOSUNNY   90  73  57 SW3       30.02S HX  98
CLARKSVILLE    SUNNY     88  75  65 SW5       30.00S HX  97
SMYRNA         MOSUNNY   92  74  55 S7        30.02S HX 101
COOKEVILLE     MOSUNNY   91  75  59 VRB5      30.03F HX 102
CROSSVILLE     PTSUNNY   84  71  65 CALM      30.10F
$$

TNZ061-075-076-078-094-096-097-271800-
SOUTH MIDDLE TENNESSEE

CITY           SKY/WX    TMP DP  RH WIND       PRES   REMARKS
FAYETTEVILLE   CLOUDY    84  73  70 SE8       30.06S HX  91
TULLAHOMA      PTSUNNY   84  72  65 S9        30.07S
WINCHESTER     PTSUNNY   88  72  58 S6        30.06S HX  94
MCMINNVILLE    MOSUNNY   90  75  62 CALM      30.04F HX 100
COLUMBIA       MOSUNNY   90  75  62 S8        30.02F HX 100
SHELBYVILLE    PTSUNNY   88  77  70 SW9       30.05S HX 100
$$

TNZ017-018-042-046-047-271800-
NORTHEAST TENNESSEE

CITY           SKY/WX    TMP DP  RH WIND       PRES   REMARKS
TRI CITIES     MOSUNNY   89  71  55 S3        30.07F HX  95
ELIZABETHTON   PTSUNNY   88  72  58 VRB7      30.06F HX  94
$$

TNZ012-013-036-069-073-074-271800-
CENTRAL EAST TENNESSEE

CITY           SKY/WX    TMP DP  RH WIND       PRES   REMARKS
KNOXVILLE      MOSUNNY   89  72  56 VRB5      30.04F HX  96
OAK RIDGE      SUNNY     92  71  50 VRB7      30.05F HX  98
GATLINBURG       N/A     91  70  49 W7        30.03F HX  97
MORRISTOWN     SUNNY     90  72  55 VRB5      30.05F HX  96
$$

TNZ083-085-099-271800-
SOUTHEAST TENNESSEE

CITY           SKY/WX    TMP DP  RH WIND       PRES   REMARKS
CHATTANOOGA    PTSUNNY   90  70  51 S8        30.04F HX  95
$$

SKY/WX REPORTED AS FAIR MEANS FEW OR NO CLOUDS BELOW
12 THOUSAND FEET.





USA.gov is the U.S. government's official web portal to all federal, state and local government web resources and services.